Location: Guadanolo
(41.9167°N, 12.9333°E)
Time: 15:13:00
(UTC+00:00)

Meteor 1-24 Rocket - Pass Details

Date: 16 September 2019
Orbit: 791 x 926 km, 81.2° (Epoch: 13 October)

Event Time Altitude Azimuth Distance (km) Brightness Sun altitude
Rises 19:50:13 0° 351° (N) 3,441 7.4 -27.8°
Reaches altitude 10° 19:52:37 10° 353° (N) 2,520 6.6 -28.1°
Enters shadow 19:57:45 69° 25° (NNE) 948 3.8 -28.9°
